User: anonymous   Login
Location: Napier
(39.4830°S, 176.9170°E)
Time: 01:25:08
(UTC+13:00)
Language:

Cosmos 2333 Rocket - Orbit

View from above orbital plane
View from above orbital plane
View from above satellite
View from above satellite

Ground track
Ground track

The orbit data is extracted from the following two-line orbital elements,

1 24298U 96051B   19079.85161135 -.00000002 +00000-0 +25235-4 0  9996
2 24298 070.8250 149.1985 0017831 299.0218 060.9115 14.12391784162165
Epoch (UTC): 20 March 2019 20:26:19
Eccentricity: 0.0017831
inclination: 70.8250°
perigee height: 838 km
apogee height: 864 km
right ascension of ascending node: 149.1985°
argument of perigee: 299.0218°
revolutions per day: 14.12391784
mean anomaly at epoch: 60.9115°
orbit number at epoch: 16216

The dashed part of the orbit path shows where the satellite is in the earth's shadow,  

DLR